Location: Middelsbur
(53.6609°N, 7.5020°E)
Time: 13:24:39
(UTC+00:00)

CARTOSAT-1 - Pass Details

Date: 06 July 2020
Orbit: 617 x 618 km, 97.8° (Epoch: 07 August)

Event Time Altitude Azimuth Distance (km) Brightness Sun altitude
Exits shadow 20:49:39 - 163° (SSE) 2,361 5.9 -5.8°
Reaches altitude 10° 20:50:34 10° 163° (SSE) 1,981 5.6 -5.9°
Maximum altitude 20:54:53 89° 74° (ENE) 627 3.6 -6.3°
Drops below altitude 10° 20:59:15 10° 346° (NNW) 1,996 7.5 -6.7°
Sets 21:01:27 0° 346° (NNW) 2,907 8.5 -6.9°
